Simultaneous Nadir Overpasses (SNOs) Predictions

Prediction of SNOs between NOAA-19 and METOP-C Satellite Orbit:

Table of predicted SNOs for the next 14.0 days since TLE Epoch: 6/7/2019
Index Date (NOAA-19) Time (NOAA-19) Lat,Lon (NOAA-19) SZA (NOAA-19 ) Date (METOP-C) Time (METOP-C) Lat,Lon (METOP-C) SZA (METOP-C ) Distance(km) Time Diff (sec)
1 06/09/2019 16:09:32 -79.26, 133.54 123.28 06/09/2019 16:10:35 -79.27, 133.56 123.25 2.05 63
2 06/09/2019 17:00:29 79.25, -59.12 56.71 06/09/2019 17:01:15 79.26, -59.25 56.72 2.90 46
3 06/09/2019 17:51:33 -79.26, 108.00 123.29 06/09/2019 17:51:57 -79.26, 108.11 123.28 2.40 24
4 06/09/2019 18:42:30 79.25, -84.66 56.71 06/09/2019 18:42:37 79.24, -84.69 56.70 1.35 7
5 06/09/2019 19:33:33 -79.24, 82.73 123.31 06/09/2019 19:33:19 -79.25, 82.67 123.30 1.79 14
6 06/09/2019 20:24:31 79.26,-110.21 56.71 06/09/2019 20:23:59 79.23,-110.13 56.67 3.64 32
7 06/09/2019 21:15:34 -79.24, 57.19 123.31 06/09/2019 21:14:41 -79.23, 57.23 123.33 1.14 53
8 06/09/2019 22:06:31 79.23,-135.48 56.69 06/09/2019 22:05:21 79.21,-135.58 56.65 2.75 70
9 06/20/2019 15:41:39 -79.29, 140.61 123.77 06/20/2019 15:42:40 -79.30, 140.74 123.74 2.83 61
10 06/20/2019 16:32:34 79.28, -52.00 56.23 06/20/2019 16:33:20 79.28, -52.06 56.24 1.24 46
11 06/20/2019 17:23:39 -79.27, 115.33 123.78 06/20/2019 17:24:02 -79.29, 115.29 123.76 2.34 23
12 06/20/2019 18:14:35 79.29, -77.55 56.23 06/20/2019 18:14:42 79.27, -77.50 56.22 1.95 7
13 06/20/2019 19:05:40 -79.27, 89.79 123.78 06/20/2019 19:05:24 -79.27, 89.85 123.77 1.35 16
14 06/20/2019 19:56:35 79.26,-102.82 56.22 06/20/2019 19:56:04 79.26,-102.94 56.21 2.47 31
15 06/20/2019 20:47:40 -79.25, 64.51 123.79 06/20/2019 20:46:46 -79.26, 64.41 123.79 2.59 54




NCC Satellite Simultaneous Nadir Overpasses (SNOs) Prediction Service
